Regional Weather Roundup
Issued by NWS Wakefield, VA

Home | Current Version | Previous Version | Text Only | Print | Product List | Glossary Off
Versions: 1 2 3 4 5 6 7 8 9 10 11 12 13 14 15 16 17 18 19 20 21 22 23 24 25 26 27

000
ASUS41 KAKQ 181415
RWRAKQ

REGIONAL WEATHER ROUNDUP
NATIONAL WEATHER SERVICE WAKEFIELD VA
1000 AM EDT FRI AUG 18 2017

Note: "fair" indicates few or no clouds below 12,000 feet with no
significant weather and/or obstructions to visibility. * = Denotes
station may not report precipitation (e.g., rain,snow,etc.),
thunder or fog.

VAZ042-051-052>054-056-181500-
NORTHERN VIRGINIA

CITY           SKY/WX    TMP DP  RH WIND       PRES   REMARKS
WASH NATIONAL  CLOUDY    81  77  88 S10       29.88S
DULLES         PTSUNNY   81  77  88 S9        29.88S
FORT BELVOIR   CLOUDY    80  75  84 S6        29.88S
QUANTICO       PTSUNNY   82  78  88 S12       29.88F
FREDERICKSBRG* CLOUDY    81  79  94 S9        29.88S
STAFFORD*      PTSUNNY   81  78  92 S8        29.92S
WARRENTON      NOT AVBL
CULPEPER*      CLOUDY    83  78  84 SE5       29.89S
MANASSAS*      PTSUNNY   81  76  84 S6        29.88S
LEESBURG*      NOT AVBL
WINCHESTER     CLOUDY    77  72  83 SW3       29.88F
FRONT ROYAL*   MOSUNNY   81  73  78 SW5       29.87F
LURAY*         SUNNY     84  72  65 S7        29.89F
$$

VAZ048-049-060>072-079>083-181500-
CENTRAL AND SOUTH CENTRAL VIRGINIA

CITY           SKY/WX    TMP DP  RH WIND       PRES   REMARKS
RICHMOND       CLOUDY    79  76  90 SW10      29.92R
CHESTERFIELD*  CLOUDY    79  75  87 VRB6      29.92S
PETERSBURG*    CLOUDY    78  73  84 S6        29.93S
HANOVER        CLOUDY    80  73  79 S8        29.92S
TAPPAHANNOCK*  CLOUDY    80  80  99 SE7       29.92S
QUINTON*       CLOUDY    80  79  98 SW3       29.91S
CHARLOTTSVILLE MOSUNNY   83  77  82 S6        29.90S
GORDONSVILLE*  NOT AVBL
ORANGE*        MOSUNNY   81  73  78 CALM      29.90R
LOUISA*        NOT AVBL
BUMPASS*       NOT AVBL
FARMVILLE*     MOSUNNY   84  72  68 SW6       29.90F
CREWE*         FAIR      82  76  82 CALM      29.92S
FORT PICKETT*  PTSUNNY  N/A N/A N/A SW5       29.93F
CHASE CITY*    FAIR      82  80  95 W3        29.94S
CLARKSVILLE*   CLOUDY    79  79 100 CALM      29.93F
SOUTH HILL*    CLOUDY    77  76  96 S5        30.00R
LAWRENCEVILLE* CLOUDY    78  75  91 SW5       29.94S
EMPORIA*       CLOUDY    79  75  89 S5        29.94S
$$

VAZ088>098-181500-
SOUTHEAST VIRGINIA

CITY           SKY/WX    TMP DP  RH WIND       PRES   REMARKS
NORFOLK        MOSUNNY   86  79  79 S12       29.92F HX  99
VIRGINIA BEACH MOSUNNY   85  76  74 S10       29.92S
NORFOLK NAVAL  MOSUNNY   86  77  74 SW10      29.94S HX  97
WEST POINT*    CLOUDY    80  77  89 S7        29.92F
SALUDA*        CLOUDY    82  78  89 SW10      29.91F
NEWPORT NEWS   CLOUDY    82  76  81 SW10      29.93S
LANGLEY AFB    MOSUNNY   84  77  79 SW12      29.92S
FORT EUSTIS    NOT AVBL
WILLIAMSBURG*  NOT AVBL
HR EXEC AP*    PTSUNNY   84  77  79 SW7       29.91S
FRANKLIN*      CLOUDY    80  76  87 SW5       29.94S
US460-WAKEFLD  CLOUDY    81  78  91 S7        29.93S
$$

VAZ020-022-025-037-045-181500-
WEST CENTRAL AND SOUTHWEST VIRGINIA

CITY           SKY/WX    TMP DP  RH WIND       PRES   REMARKS
STAUNTON*      MOSUNNY   81  72  73 SW6       29.94S
WAYNESBORO*    SUNNY     82  73  74 SW9       29.95S
HOT SPRINGS VA NOT AVBL
LYNCHBURG      MOSUNNY   82  72  71 VRB7      29.94S
DANVILLE       SUNNY     83  76  79 W6        29.94S
SOUTH BOSTON*  FAIR      83  78  83 S5        29.93F
MARTINSVILLE   MOSUNNY   81  73  78 CALM      29.98S
ROANOKE        MOSUNNY   83  71  67 W10       29.97F
BLACKSBURG     MOSUNNY   78  71  80 W5        30.04F
DUBLIN*        NOT AVBL
MARION*        CLOUDY    75  61  60 W14       30.06S
HILLSVILLE*    NOT AVBL
RICHLANDS*     DRIZZLE   73  66  78 SW8       30.04S
WISE*          CLOUDY    72  72 100 SW12      30.05R
ABINGDON*      CLOUDY    76  73  88 W12       30.02S
$$

MDZ021>025-VAZ099-100-181500-
SOUTHERN MARYLAND AND THE DELMARVA PENINSULA

CITY           SKY/WX    TMP DP  RH WIND       PRES   REMARKS
PATUXENT RIVER PTSUNNY   78  75  90 SW10      29.88F
BAY BRIDGE APT CLOUDY    79  75  89 S8        29.88S
LEONARDTOWN    PTSUNNY   81  73  78 SW10      29.91S
DOVER          CLOUDY    81  77  89 S13       29.86S
GEORGETOWN     CLOUDY    83  77  82 S13       29.90S
EASTON         PTSUNNY   82  75  78 S13       29.93R
CAMBRIDGE      CLOUDY    81  77  89 VRB7G14   29.89S
SALISBURY      PTSUNNY   82  78  88 S10G22    29.91S
OCEAN CITY     CLOUDY    81  78  91 SW15      29.93R
WALLOPS ISLAND CLOUDY    83  79  88 S17       29.92S
ACCOMACK*      MOSUNNY   84  78  82 S10       29.92S HX  96
$$

NCZ012>017-030>032-181500-
NORTH CENTRAL AND EASTERN NORTH CAROLINA

CITY           SKY/WX    TMP DP  RH WIND       PRES   REMARKS
ROANOKE RAPIDS CLOUDY    79  77  94 SW6       29.94S
RALEIGH        MOSUNNY   84  77  79 VRB5      29.95S
ELIZABETH CITY MOSUNNY   86  81  85 SW10      29.94S HX 102
AHOSKIE*         N/A     79  78  96 CALM      29.95R
EDENTON*       CLOUDY    85  80  84 CALM      29.95F HX  99
CURRITUCK*     MOSUNNY   85  78  80 S5        29.95S HX  96
KILL DEVIL HLS SUNNY     85  78  79 CALM      29.94S HX  97
MANTEO         PTSUNNY   86  78  78 SW9       29.96S HX  98
CAPE HATTERAS  SUNNY     87  82  85 SW9       29.97S HX 106
TARBORO*       NOT AVBL
GOLDSBORO      MOSUNNY   77  77 100 S3        29.92S
WASHINGTON     MOSUNNY   86  80  82 SW8       29.95S HX 100
GREENVILLE     PTSUNNY   84  79  84 SW6       29.96F HX  96
NEW BERN       MOSUNNY   88  81  79 SW8       29.96S HX 106
WILMINGTON     SUNNY     88  80  77 W9        29.96S HX 104
$$

VAZ048-181500-
ELSEWHERE

CITY           SKY/WX    TMP DP  RH WIND       PRES   REMARKS
HARRISBURG PA  MOSUNNY   82  75  79 SW8       29.85R
BALTIMORE      CLOUDY    80  77  90 S5        29.87S
ANNAPOLIS      CLOUDY    79  79 100 S7        29.87S
ANDREWS AFB    CLOUDY    81  75  83 S10       29.88S
PHILADELPHIA   CLOUDY    79  75  87 S8        29.88R
HENDERSON NC   CLOUDY    77  73  88 CALM      29.95S
GREENSBORO     MOSUNNY   84  77  79 NW5       29.96S
ROCKY MOUNT    PTSUNNY   81  77  88 SW6       29.95S
$$

VAZ100-181500-
MARINE

STATION/POSITION TIME  TEMP    WIND        PRES    WAVE   SWELL
                       AIR SEA DIR/SP/G            HT/PER HT/PER
                 (UTC) (F)     (DEG/KT/KT) (MB)    (FT/S) (FT/S)
BRANDYWINE LGT   1330   79     210/ 12/ 14 1012.5R
CAPE MAY NJ      1330   80 78  200/ 11/ 16 1011.6F
LEWES DE         1330   82 76  220/ 10/ 18 1011.8F
15NM E FENWICK I 1350   78 77  180/ 16/ 19 1013.3R   3/ 4   2/ 7
OCEAN-CITY-INLET 1330   78 76  210/ 14/ 17 1013.6R
WACHAPREAGUE VA  1330   83 81  210/ 10/ 15 1013.2S
THOMAS POINT MD  1400   78 79  210/ 11/ 12   N/A
GOOSES REEF MD   1400   80 79  220/ 10/ 14 1012.4    1/ 3
COVE POINT MD    1330   80     220/ 12/ 15 1012.8R
SOLOMONS ISLAND  1330   80 81  210/ 11/ 13   N/A
BISHOPS HEAD MD  1330   80 80  210/ 13/ 17 1012.9R
PINEY POINT MD   1324          210/ 15/ 16   N/A
POTOMAC MD       1400   80 81  200/ 10/ 14 1011.5    1/ 2
CAMBRIDGE MD     1330   81 81              1012.9R
LEWISETTA VA     1330   80 81  220/  8/  9 1012.3F
RAPPAHANNOCK LGT 1324          200/ 18/ 19 1013.7
STINGRAY PT      1400   81 81  240/ 12/ 14 1013.2    1/ 2
YORK RVR RNG VA  1330   82     240/ 12/ 13 1013.6R
YORKTOWN VA      1330   81 81  220/ 12/ 16 1012.7R
JAMESTOWN VA     1400      83  220/  6/ 10   N/A     0
DOMINION TERM VA 1330   81     230/  8/ 11 1013.5S
KIPTOPEKE VA     1330      80  190/  6/  7   N/A
CHES BAY BRIDGE  1330   82 75  230/ 14/ 15 1013.1F
CAPE HENRY VA    1330   83     200/ 11/ 16   N/A
WILLOUBY STN VA  1330   82     220/ 12/ 12 1013.3R
S CRANEY ISL VA  1330   82     210/  9/ 11 1013.2F
CAPE HENRY BUOY  1330      79                N/A     2/ 8
1ST LANDING BUOY 1400   82 79              1013.2    1/ 3
64NM E OF VA BCH 1350   79 77  180/ 10/ 10 1014.7F   3/ 8   2/ 8
DUCK PIER NC     1330   83 72  200/  9/ 13 1013.6F
44100 DUCK FRF   1305      79                N/A     2/ 8
44056 DUCK FRF   1330      78                N/A     2/ 8
OREGON INLET NC  1330   83 83  180/ 13/ 14 1014.2F
HATTERAS NC      1330   85 83  230/  9/ 12 1014.5F
DIAMOND SHLS NC  1350   84 86  210/ 12/ 14 1014.8R   2/ 8   2/ 8
CAPE LOOKOUT NC  1400   85     210/  9/ 12 1014.4S
$$




USA.gov is the U.S. government's official web portal to all federal, state and local government web resources and services.